Regional Weather Roundup
Issued by NWS Sioux Falls, SD

Home | Current Version | Previous Version | Text Only | Print | Product List | Glossary On
Versions: 1 2 3 4 5 6 7 8 9 10 11 12 13 14 15 16 17 18 19 20 21 22 23 24 25 26 27 28 29 30 31 32 33 34 35 36 37 38 39 40 41 42 43 44 45 46 47 48 49 50
000
ASUS43 KFSD 050602
RWRFSD

WEATHER ROUNDUP FOR SE SOUTH DAKOTA/SW MINNESOTA/NW IOWA
NATIONAL WEATHER SERVICE SIOUX FALLS SD
100 AM CDT THU MAY 05 2016

NOTE: "FAIR" INDICATES FEW OR NO CLOUDS BELOW 12,000 FEET WITH NO
SIGNIFICANT WEATHER AND OR OBSTRUCTIONS TO VISIBILITY.


SDZ038>040-050-052>070-050700-
SOUTHEAST SOUTH DAKOTA

CITY           SKY/WX    TMP DP  RH WIND       PRES   REMARKS
BROOKINGS      CLEAR     47  32  56 CALM      30.02S
CHAMBERLAIN    NOT AVBL
HURON          CLEAR     50  42  74 CALM      30.02S
6HR MIN TEMP:  49; 6HR MAX TEMP:  71;

MADISON        FAIR      46  36  66 W3        30.03S
MITCHELL       CLEAR     52  41  66 CALM      30.03R
6HR MIN TEMP:  51; 6HR MAX TEMP:  69;

SIOUX FALLS    CLEAR     46  37  71 CALM      30.03S
6HR MIN TEMP:  45; 6HR MAX TEMP:  66;

WINNER         FAIR      54  38  54 S8        30.04F
YANKTON        CLEAR     46  37  71 CALM      30.04R
$$

MNZ071-072-080-081-089-090-097-098-050700-
SOUTHWEST MINNESOTA

CITY           SKY/WX    TMP DP  RH WIND       PRES   REMARKS
FAIRMONT       CLEAR     48  30  49 CALM      30.00S
JACKSON        PTCLDY    50  32  50 CALM      30.02S
LUVERNE        CLEAR     45  34  65 CALM      30.03S
MARSHALL       CLEAR     48  32  53 SW3       30.02R
6HR MIN TEMP:  47; 6HR MAX TEMP:  68;

MONTEVIDEO     CLEAR     48  27  43 CALM      30.02R
PIPESTONE      CLEAR     52  28  40 CALM      30.02S
REDWOOD FALLS  CLEAR     53  28  38 CALM      30.00R
TRACY          CLEAR     50  33  51 W5        30.01S
WINDOM         CLEAR     45  34  65 CALM      30.02R
WORTHINGTON    CLEAR     47  35  63 W6        30.03R
$$

IAZ001>003-012>014-020>022-031-032-NEZ013-014-SDZ071-050700-
NORTHWEST IOWA

CITY           SKY/WX    TMP DP  RH WIND       PRES   REMARKS
DENISON        PTCLDY    46  39  76 CALM      30.00S
ESTHERVILLE    CLEAR     42  37  82 NW7       30.01R
SIOUX CITY     CLEAR     45  38  76 W7        30.03R
6HR MIN TEMP:  44; 6HR MAX TEMP:  66;

SPENCER        CLEAR     45  38  76 NW6       30.01S
6HR MIN TEMP:  42; 6HR MAX TEMP:  66;

STORM LAKE     CLEAR     50  34  53 N9        30.02S
$$

ABBREVIATIONS USED IN REMARKS
   TC - TEMPERATURE IN CELSIUS
  WCI - WIND CHILL INDEX
   HX - HEAT INDEX
  VSB - VISIBILITY





USA.gov is the U.S. government's official web portal to all federal, state and local government web resources and services.